close
close

Jackpot

Texas Poker Multi Jackpot System

Kini Telah hadir Jackpot SUPER ROYAL FLUSH

Kini Telah hadir Jackpot 2000 (khusus table VIP keatas).

Ikutilah global jackpot yang tersedia di system kami, dengan system jackpot terbaru dan pertama di indonesia, anda dapat membeli jackpot dengan harga 100 rupiah saja dan menangkan hadiahnya hingga puluhan juta rupiah.

Jackpot bukanlah suatu keharusan untuk dibeli, namun kami memberikan suatu fitur tambahan untuk member tercinta dari www.kingpoker99.net.

Terdapat tiga pilihan harga jackpot yang bisa anda beli yaitu :100,500,1000 dan 2000(khusus table VIP Keatas) rupiah.

Hadiah dari Multi jackpot system www.kingpoker99.net

  1. full house x 10 harga jackpot yang anda beli.
      (contoh:anda membeli 1000 maka:1000 X10 = 10.000)
  2. four of kind x 250 harga jackpot yang anda beli
      (contoh:anda membeli 1000 maka:1000 X250 = 250.000)
  3. Straight flush x 1200
      (contoh:anda membeli 1000 maka:1000 X1200 = 1.200.000)
  4. Royal flush x 10000 harga jackpot yang anda beli
      (contoh:anda membeli 1000 maka:1000 X10000 = 10.000.000)
  5. SUPER ROYAL FLUSH x 30000 harga jackpot yang anda beli
      (contoh:anda membeli 1000 maka:1000 X30000 = 30.000.000)

Kondisi kartu

  1. full house adalah kondisi kartu dimana kartu anda dan kartu tengah dengan total 7 kartu bisa mendapatkan nilai 5 kartu dengan kombinasi 1 tris(three of kind) dan 1 pair, contoh 3 kartu 10 dan 2 kartu 5
  2. Four of kind adalah kondisi kartu dimana kartu anda dan kartu tengah dengan total 7 kartu bisa mendapatkan nilai 5 kartu dengan kombinasi 4 kartu yang sama jumlah dan 1 kartu apapun juga contoh anda mendapatkan 4 buah kartu angka 3 dan 1 kartu apapun.
  3. Staright flush adalah kondisi kartu dimana kartu anda dan kartu tengah dengan total 7 kartu bisa mendapatkan nilai 5 kartu dengan kombinasi seri / staright dengan kembang yang sama contoh : urutan kartu dari angka 5, 6, 7, 8 , 9 10 dengan kembang yg sama misalnya as hati
  4. Royal flush adalah kondisi kartu dimana kartu anda dan kartu tengah dengan total 7 kartu bisa mendapatkan nilai 5 kartu dengan kombinasi seri / staright dengan kembang yang sama tetapi kartu tersebut haruslah dimulai dari 10. contoh 10, Queen, Jack, King dan aces dengan kembang yang sama
  5. Super Royal flush adalah kondisi kartu dimana Kedua kartu anda digabung dengan 3 kartu pertama meja haruslah royal flush. contoh kartu anda 10,Queen kembang sama dan 3 kartu pertama meja adalah Jack, King dan aces dengan kembang yang sama

Demikian adalah penjelasan dari Multi Jackpot www.kingpoker99.net terima kasih dan selamat bermain salam hoki dari kami

Texas Poker Jackpot Winner

TOP SUPER ROYAL FLUSH
No.TanggalNamaPriceWin
124/06 07:31IRSOE24Super Royal flush30,000,000
224/06 06:19GAULANINGGSuper Royal flush1,500,000
324/06 02:29STHWPBA643Super Royal flush6,000,000
424/06 01:27SIDAK07Super Royal flush3,000,000
524/06 00:24OPEN666Super Royal flush6,000,000
TOP ROYAL FLUSH
No.TanggalNamaPriceWin
124/06 07:53T4DIJAZ87Royal flush1,000,000
224/06 07:45KILO46Royal flush5,000,000
324/06 07:04R10GAMERoyal flush2,000,000
424/06 06:43GUINES26Royal flush5,000,000
524/06 06:36CICAK_7777Royal flush5,000,000
TOP STRAIGHT FLUSH
No.TanggalNamaPriceWin
124/06 08:02KINGDLY89Straight Flush2,400,000
224/06 08:01A5CB9661Straight Flush240,000
324/06 08:01BOSS3SSStraight Flush600,000
424/06 07:58IDK895614Straight Flush240,000
524/06 07:56DEANNO92Straight Flush600,000
LATEST JACKPOT
No.TanggalNamaPriceWin
124/06 08:03BROBAYFull House2,000
224/06 08:03IMADE08Full House1,000
324/06 08:03JFSBSF67XEFull House1,000
424/06 08:03PEENLOVEFull House1,000
524/06 08:03SMARTFREN1Full House2,000
624/06 08:03YPBPVUQHIKFull House1,000
724/06 08:03BOOMBERZFull House2,000
824/06 08:03SENAM99Four Of A Kind50,000
924/06 08:03XSIMER20Full House5,000
1024/06 08:03ACT71Full House10,000
1124/06 08:03DWTYLFull House2,000
1224/06 08:03D3RMAW4NFull House5,000
1324/06 08:03K3K3R4S4NFull House1,000
1424/06 08:03DOLLY37Full House5,000
1524/06 08:03KPD302Four Of A Kind125,000
1624/06 08:03OBBETT99Four Of A Kind125,000
1724/06 08:03NOLAN1910Full House10,000
1824/06 08:03JAWIR9AFull House5,000
1924/06 08:03ANEUK24Full House10,000
2024/06 08:02DEVDAS212Full House2,000
2124/06 08:02HAMADA99Full House1,000
2224/06 08:02DWBTNE1745Full House2,000
2324/06 08:02QTCD42J4BEFull House5,000
2424/06 08:02WHSE42NK54Four Of A Kind25,000
2524/06 08:02ABHI52Full House10,000
2624/06 08:02DORDARFull House2,000
2724/06 08:02FE631F2FFull House2,000
2824/06 08:02HIGHTEMPZFull House10,000
2924/06 08:02MHB234Full House2,000
3024/06 08:02VINO090318Full House2,000
3124/06 08:02GANTII44Full House1,000
3224/06 08:02PNENLAHFull House2,000
3324/06 08:02UNCLEBOBBYFull House10,000
3424/06 08:02KPD302Four Of A Kind125,000
3524/06 08:02ARIPDOLLAFull House5,000
3624/06 08:02MAWAR266Full House5,000
3724/06 08:02BOSSJPQQFull House1,000
3824/06 08:02ANTUWW99Full House20,000
3924/06 08:02IA1P31BN31Full House2,000
4024/06 08:02MRSING23Full House2,000
4124/06 08:02C4NNT1KKFull House1,000
4224/06 08:02ALBARR100Full House10,000
4324/06 08:02G0D4M197Full House10,000
4424/06 08:02M0K1N9Full House5,000
4524/06 08:02ZEAFISHAFull House10,000
4624/06 08:02TOTTI197Full House10,000
4724/06 08:02KOINHOKI29Full House2,000
4824/06 08:02JONLENON91Four Of A Kind125,000
4924/06 08:02LARISJPFull House2,000
5024/06 08:02ZEN_ZIFull House2,000

Domino Multi Jackpot System

Ikutilah global jackpot yang tersedia di system kami, dengan system jackpot terbaru dan pertama di indonesia, anda dapat membeli jackpot dengan harga 100 rupiah saja dan menangkan hadiahnya hingga puluhan juta rupiah.

Jackpot bukanlah suatu keharusan untuk dibeli, namun kami memberikan suatu fitur tambahan untuk member tercinta dari www.kingpoker99.net.

Terdapat tiga pilihan harga jackpot yang bisa anda beli yaitu :100,500 dan 1000 rupiah.

Hadiah dari Multi jackpot system www.kingpoker99.net

  1. Murni Kecil x 50 harga jackpot yang anda beli.
      (contoh:anda membeli 1000 maka:1000 X 50 = 50.000)
  2. Murni Besar x 50 harga jackpot yang anda beli
      (contoh:anda membeli 1000 maka:1000 X 50 = 50.000)
  3. BALAK x 100 harga jackpot yang anda beli
      (contoh:anda membeli 1000 maka:1000 X 100 = 100.000)
  4. ENAM DEWA x 6666 harga jackpot yang anda beli
      (contoh:anda membeli 1000 maka:1000 X 6666 = 6.666.000)

Demikian adalah penjelasan dari Multi Jackpot www.kingpoker99.net terima kasih dan selamat bermain salam hoki dari kami

Domino Jackpot Winner

TOP ENAM DEWA
No.TanggalNamaPriceWin
124/06 05:24FUZIGOKImurni enam3,333,000
224/06 05:23X795V422IMmurni enam666,600
324/06 05:19POPON79murni enam3,333,000
424/06 03:53DEWIE17murni enam3,333,000
524/06 02:43FUZIGOKImurni enam3,333,000
TOP BALAK
No.TanggalNamaPriceWin
124/06 08:02GIE69balak100,000
224/06 08:01BOROK8080balak100,000
324/06 07:57COCOTE_9balak100,000
424/06 07:53BORKAN18balak10,000
524/06 07:53N0MLTVARULbalak50,000
LATEST JACKPOT
No.TanggalNamaPriceWin
124/06 08:02GIE69balak100,000
224/06 08:01BOROK8080balak100,000
324/06 08:00WEDUS_86murni besar25,000
424/06 08:00WAHISRImurni kecil5,000
524/06 07:59ARIEF1717murni besar50,000
624/06 07:58AMPM1287lucky9910,000
724/06 07:58IGU15murni kecil50,000
824/06 07:57COCOTE_9balak100,000
924/06 07:57VADIL99lucky9925,000
1024/06 07:56OAKLEY8888lucky9925,000
1124/06 07:56IPAH261lucky992,500
1224/06 07:55JEEMROOTmurni besar25,000
1324/06 07:55IWALL27murni besar50,000
1424/06 07:53BORKAN18balak10,000
1524/06 07:53GBRME2G8VDmurni kecil25,000
1624/06 07:53N0MLTVARULbalak50,000
1724/06 07:52HACKERQmurni besar50,000
1824/06 07:51ROBICOCO13murni besar50,000
1924/06 07:50KELAYAPANmurni besar25,000
2024/06 07:49SUWAAIImurni besar50,000
2124/06 07:48BOROK8080murni besar50,000
2224/06 07:44ARIEF1717murni besar50,000
2324/06 07:44TOMZ8833murni kecil25,000
2424/06 07:43IDNGUUS963balak10,000
2524/06 07:42RANDI866murni besar50,000
2624/06 07:41R101Rmurni besar5,000
2724/06 07:41ICAN28murni besar50,000
2824/06 07:40KABAU51RAHlucky9910,000
2924/06 07:40TONI998murni kecil50,000
3024/06 07:39LUKITO457murni besar50,000
3124/06 07:39SAMWIRmurni kecil50,000
3224/06 07:39WA4MKA2XN3murni kecil25,000
3324/06 07:38S2804murni kecil50,000
3424/06 07:34USRO_89murni besar5,000
3524/06 07:30SRTLADJOESmurni besar5,000
3624/06 07:30AGUK555balak10,000
3724/06 07:28VHY86murni kecil50,000
3824/06 07:27QQNYONG86murni kecil50,000
3924/06 07:27GOJES66murni kecil25,000
4024/06 07:27X795V422IMmurni besar25,000
4124/06 07:26REJENG99murni besar50,000
4224/06 07:25UDJmurni besar5,000
4324/06 07:23BAB55E6Dbalak50,000
4424/06 07:23S0BRI88murni besar25,000
4524/06 07:23RIZKY0308murni besar50,000
4624/06 07:18XXJSKUEJE2murni kecil5,000
4724/06 07:18HABUGE88murni besar25,000
4824/06 07:15LAPON212murni kecil25,000
4924/06 07:12LI2H1ZEB8Nmurni besar5,000
5024/06 07:11MANTEB9murni kecil25,000

Ceme Multi Jackpot System

Jackpot dilihat dari gabungan kartu pemain dengan kartu bandar. Bandar harus membeli jackpot sebanyak jumlah player yang sedang duduk. Sebagai contoh bila terdapat 3 pemain duduk bermain, dan bandar memutuskan untuk membeli jackpot Rp 1.000, maka pada periode tersebut bandar akan membeli jackpot sebanyak 3xRp1.000 = Rp3.000.

Jackpot bukanlah suatu keharusan untuk dibeli, namun kami memberikan suatu fitur tambahan untuk member tercinta dari www.kingpoker99.net.

Terdapat tiga pilihan harga jackpot yang bisa anda beli yaitu :100,500 dan 1000 rupiah.

Hadiah dari Multi jackpot system www.kingpoker99.net

  1. Murni Kecil x 50 harga jackpot yang anda beli.
      (contoh:anda membeli 1000 maka:1000 X 50 = 50.000)
  2. Murni Besar x 50 harga jackpot yang anda beli
      (contoh:anda membeli 1000 maka:1000 X 50 = 50.000)
  3. BALAK x 200 harga jackpot yang anda beli
      (contoh:anda membeli 1000 maka:1000 X 200 = 200.000)
  4. ENAM DEWA x 6666 harga jackpot yang anda beli
      (contoh:anda membeli 1000 maka:1000 X 6666 = 6.666.000)

Demikian adalah penjelasan dari Multi Jackpot www.kingpoker99.net terima kasih dan selamat bermain salam hoki dari kami

Ceme Jackpot Winner

TOP ENAM DEWA
No.TanggalNamaPriceWin
124/06 07:48BANASWATImurni enam6,666,000
224/06 07:28ALCHAN88murni enam666,600
324/06 06:53DEWAN99999murni enam6,666,000
424/06 06:27METALL1990murni enam6,666,000
524/06 05:59JADIHOKKYmurni enam6,666,000
TOP BALAK
No.TanggalNamaPriceWin
124/06 08:02DRAGOAG99balak200,000
224/06 08:01PENYOKBOY1balak200,000
324/06 08:01MBEK79balak200,000
424/06 08:01IRSYAH021balak20,000
524/06 08:00AAAACCC132balak200,000
LATEST JACKPOT
No.TanggalNamaPriceWin
124/06 08:03V8OATD0QVMmurni besar25,000
224/06 08:03BONDAL84murni besar5,000
324/06 08:03NUNING1STmurni kecil50,000
424/06 08:03BSD_CITYmurni besar25,000
524/06 08:03EKAMADImurni kecil50,000
624/06 08:03POETRIAYUmurni kecil50,000
724/06 08:02DRAGOAG99balak200,000
824/06 08:02PASBANGET1murni besar50,000
924/06 08:02HANNN13murni besar50,000
1024/06 08:02SEINSEIN13murni kecil50,000
1124/06 08:02CHIPEKOmurni besar50,000
1224/06 08:01MBEL94murni kecil50,000
1324/06 08:01OIK123murni kecil50,000
1424/06 08:01PLONGAmurni kecil25,000
1524/06 08:01PENYOKBOY1balak200,000
1624/06 08:01MBEK79balak200,000
1724/06 08:01IRSYAH021balak20,000
1824/06 08:01UJG91murni kecil25,000
1924/06 08:01BUN9AANmurni kecil25,000
2024/06 08:01JERRI99murni kecil25,000
2124/06 08:00AAAACCC132balak200,000
2224/06 08:00DENI057balak200,000
2324/06 08:00AMBON44444murni besar5,000
2424/06 08:00KUMP44YYEmurni kecil50,000
2524/06 08:00INDAH241murni kecil5,000
2624/06 08:00DRUSS99balak200,000
2724/06 08:00MOMOARYmurni kecil25,000
2824/06 08:00FATRIN99murni kecil50,000
2924/06 08:00FATRIN99murni kecil50,000
3024/06 08:00KASAR55murni kecil25,000
3124/06 07:59BLACK14_murni kecil50,000
3224/06 07:59PENYOKBOY1murni kecil50,000
3324/06 07:59SSBKT04balak100,000
3424/06 07:58KENTUT110murni kecil50,000
3524/06 07:58DRAGOAG99murni kecil50,000
3624/06 07:58IONZC5GA8Zmurni kecil5,000
3724/06 07:58MONYET2murni besar50,000
3824/06 07:58JABLAY952murni besar50,000
3924/06 07:58IYAN906murni kecil25,000
4024/06 07:58AGNESIIAAAmurni kecil50,000
4124/06 07:57OTOK62murni kecil50,000
4224/06 07:57MOMOARYmurni besar25,000
4324/06 07:57BARRE55murni besar50,000
4424/06 07:57ACD340murni besar5,000
4524/06 07:57K4R14N4_murni besar50,000
4624/06 07:57POETRIAYUmurni kecil25,000
4724/06 07:57ARIE6421murni kecil50,000
4824/06 07:57KURAKURA94murni kecil5,000
4924/06 07:57N63H3balak200,000
5024/06 07:57ROCK81balak200,000